Aérodrome :
LOGIN :

S'inscrire | Disclaimer

   EN    FR    IT 

 










Légende :    VFR   VFR Marginal   IFR   IFR Intensif   IFR Très Intensif
Visi : 
Plafond : 
>= 8 km
>= 3000ft
5 à 8 km
1000 à 3000 ft
1500m à 5 km
500 à 1000 ft
800 à 1500m
200 à 500 ft
< 800m
< 200 ft
Symboles :   Orages  Brouillard  Fortes neiges  Fortes précipitations  Vent > 20 kt
SIGMETs :   Divers  Orages  Givrage  Turbulence  Onde Orograph.  Cendres Volcan.







- Altitude de l'aérodrome : 468 ft
- Code IATA : GRO


LEGE - Girona Costa Brava

DERNIER METAR :
  • 231730Z 23003KT CAVOK 12/10 Q1026

METARs EXPIRÉS :
  • 231700Z 21004KT CAVOK 12/10 Q1026
  • 231630Z 22002KT CAVOK 14/09 Q1026
  • 231600Z VRB02KT CAVOK 16/09 Q1026
  • 231530Z 21003KT 180V240 CAVOK 17/09 Q1026
  • 231500Z 21003KT 170V250 CAVOK 17/09 Q1026

TAF TAF LEGE
Valide du 23 à 18h jusqu'au 24 à 18h UTC


231700Z 2318/2418 VRB03KT 9999 SCT015 TX18/2413Z TN03/2407Z
PROB40
TEMPO 2320/2409 0800 BCFG BKN003
BECMG 2410/2412 18012KT
Pas de NOTAMs connus pour ce terrain.



MET'MAP, la Météo Aéronautique d'un coup d'oeil ! - Copyright ORBIFLY Décembre 2007 - Disclaimer

ORBIFLY MET'MAP TEAM :

Programmation & Développement : Alexandra Zaïnal
Conception & Développement : Baudouin d'Aumeries
Co-Programmation & Développement : Marc-Olivier Méhu
Soutien technique & logistique : Manuel Goepfert

Contact : metmap@orbifly.com




SOURCES & CREDITS :

   NOAA